This is the latest recevied weather packets stored in our database for station/object W0BJ. If no packets are shown the sender has not sent any weather packets the latest 10 day(s).
| Time | Temp. | Humidity | Pressure | Rain* | Wind** | Luminosity | Snow |
|---|---|---|---|---|---|---|---|
| 1778002344 | 12.78° C | 67% | 1014.3 hPa | 0 mm | - | - | - |
| 1778001798 | 12.78° C | 69% | 1013.9 hPa | 0 mm | - | - | - |
| 1778001744 | 12.78° C | 70% | 1013.8 hPa | 0 mm | - | - | - |
| 1778001143 | 12.78° C | 70% | 1013.7 hPa | 0 mm | - | - | - |
| 1778000897 | 12.78° C | 67% | 1013.8 hPa | 0 mm | - | - | - |
| 1778000545 | 12.78° C | 69% | 1013.7 hPa | 0 mm | - | - | - |
| 1777999999 | 12.78° C | 69% | 1013.4 hPa | 0 mm | - | - | - |
| 1777999945 | 12.78° C | 69% | 1013.4 hPa | 0 mm | - | - | - |
| 1777999344 | 12.78° C | 69% | 1013.3 hPa | 0 mm | - | - | - |
| 1777999098 | 12.78° C | 65% | 1013.2 hPa | 0 mm | - | - | - |
| 1777998744 | 12.78° C | 63% | 1013 hPa | 0 mm | - | - | - |
| 1777998197 | 13.33° C | 61% | 1012.9 hPa | 0 mm | - | - | - |
| 1777998143 | 13.33° C | 62% | 1012.8 hPa | 0 mm | - | - | - |
| 1777997543 | 13.33° C | 60% | 1012.7 hPa | 0 mm | - | - | - |
| 1777997299 | 13.89° C | 60% | 1012.5 hPa | 0 mm | - | - | - |
| 1777996944 | 13.89° C | 58% | 1012.4 hPa | 0 mm | - | - | - |
| 1777996398 | 14.44° C | 58% | 1012.4 hPa | 0 mm | - | - | - |
| 1777996344 | 14.44° C | 57% | 1012.5 hPa | 0 mm | - | - | - |
| 1777995744 | 14.44° C | 57% | 1012.5 hPa | 0 mm | - | - | - |
| 1777995497 | 14.44° C | 56% | 1012.6 hPa | 0 mm | - | - | - |
| 1777995145 | 14.44° C | 57% | 1012.5 hPa | 0 mm | - | - | - |
| 1777994599 | 14.44° C | 58% | 1012.4 hPa | 0 mm | - | - | - |
| 1777994545 | 14.44° C | 59% | 1012.4 hPa | 0 mm | - | - | - |
| 1777993944 | 13.89° C | 61% | 1012.7 hPa | 0 mm | - | - | - |
| 1777993698 | 13.89° C | 63% | 1012.6 hPa | 0 mm | - | - | - |
* Rain latest hour (hover to see other rain measurements)
** Current wind speed in m/s (hover to see current wind gust speed)